Temp
75 75 76 77 78 79 77 77 78 78 79 80 79 80 79 78 77 76 77 77 77 78 77 76 75 76 77 77 75 75 76 77 75 74 73 75 72 73 73 71 72 75 76 72 72 73 71 63 60 64 65 67 69 70 70 71 73 72 73 75 76 76 77
77 77 78 78 78 77 76 77 77 79 79 79 79 78 79 78 77 76 76 77 76 76 78 78 77 77 75 74 73 73 74 74 75 74 74 74 74 74 72 71 75 75 75 75 74 71 71 64 63 61 59 65 66 67 68 71 72 74 74 75 77 77 75
77 78 78 77 76 76 76 76 77 77 78 78 78 79 79 78 77 77 77 77 76 77 77 78 77 75 74 73 73 73 73 73 75 74 73 73 73 74 75 72 73 73 73 73 73 69 71 71 67 66 64 64 63 65 69 71 74 74 75 74 75 78 77
76 76 75 75 76 75 75 76 76 77 78 78 78 77 78 79 77 78 77 77 77 76 77 77 75 76 74 73 73 73 72 72 74 74 73 73 73 74 75 74 73 72 68 67 65 67 67 69 69 68 68 71 68 65 69 74 75 76 77 76 76 76 76
76 75 75 74 75 76 76 76 77 78 77 77 77 77 76 77 76 76 77 77 77 76 76 77 76 76 76 75 73 73 73 73 73 73 73 73 72 73 73 76 71 69 73 69 68 65 67 64 69 69 70 73 73 74 74 72 77 77 78 78 79 77 77
76 77 76 76 77 77 77 76 76 76 77 76 76 76 76 76 77 76 76 76 77 76 77 78 77 77 77 75 75 73 73 72 73 73 74 72 72 73 74 75 70 67 71 75 75 71 66 65 69 69 74 76 71 71 74 74 73 78 78 78 79 79 79
76 76 77 77 77 78 78 77 77 78 77 76 76 76 77 77 78 77 77 77 78 77 77 77 77 77 77 76 76 74 73 73 73 72 73 72 72 73 73 73 76 67 72 76 76 73 68 68 68 70 70 73 73 73 75 76 77 75 76 80 80 81 80
76 77 78 78 77 77 78 77 78 78 78 78 78 78 78 77 77 77 77 76 76 76 76 76 77 77 77 77 77 75 75 74 74 73 72 73 72 73 72 72 72 73 73 78 78 76 73 70 67 72 72 69 69 72 71 76 76 76 75 78 80 80 79
74 77 78 77 76 76 77 78 78 78 79 79 78 78 77 77 77 77 77 77 77 76 77 77 77 78 76 75 76 75 75 77 74 73 74 74 73 73 73 74 69 72 76 78 80 78 73 75 75 77 75 73 69 66 70 70 73 74 78 75 78 80 78
74 76 76 74 74 76 78 78 78 78 78 78 77 77 76 77 77 77 77 76 76 76 76 77 77 77 76 75 76 75 75 76 75 75 75 75 75 75 74 73 73 76 77 77 78 79 79 77 76 77 77 73 73 70 67 67 69 70 74 78 74 76 79
75 77 77 76 77 77 77 78 77 77 77 77 77 77 77 76 77 77 76 76 76 76 76 77 78 78 76 76 76 76 76 76 75 76 75 76 75 75 75 74 73 75 77 77 78 77 78 77 75 70 73 73 76 72 72 69 68 73 73 76 78 76 78
75 76 77 77 77 77 76 77 76 77 77 77 77 76 76 77 76 77 77 77 76 76 77 76 76 76 77 76 75 76 76 76 76 75 75 75 75 75 74 73 74 75 76 76 77 77 78 77 78 71 68 74 77 76 76 75 68 72 76 72 77 80 78
76 76 76 76 76 77 77 77 77 76 76 77 77 77 77 77 77 76 77 77 76 77 77 76 77 76 76 76 76 75 75 75 75 75 76 76 77 76 75 74 74 75 75 77 77 77 77 78 78 79 78 76 77 76 77 76 71 69 75 75 76 78 79
73 76 76 76 76 76 77 77 77 77 78 77 77 76 77 77 78 77 78 77 78 77 76 76 76 76 76 75 76 76 77 78 77 76 76 75 77 76 76 75 75 75 76 76 77 77 77 77 78 78 78 78 78 76 77 76 73 70 73 77 76 78 78
73 75 75 76 76 77 76 76 77 77 76 77 78 78 78 77 77 77 78 78 78 78 77 77 77 77 77 75 75 76 76 77 78 77 76 76 76 76 75 75 76 75 77 77 75 77 76 78 80 80 79 78 78 77 78 78 75 72 68 73 75 79 77
71 73 74 75 75 76 76 76 77 76 76 76 77 78 77 77 77 78 78 77 78 77 77 77 76 76 76 76 76 76 76 77 76 75 75 76 77 77 75 75 75 75 75 74 74 75 77 78 80 80 78 80 79 78 80 81 77 73 71 72 75 76 75
73 73 73 74 75 75 76 76 77 76 77 77 77 76 77 77 77 77 77 77 77 77 77 76 76 78 77 77 77 76 77 76 77 77 76 77 78 76 75 74 74 74 75 73 74 74 76 78 78 78 78 78 78 78 78 78 78 76 74 72 73 78 77
71 68 68 73 74 75 75 76 76 78 76 76 76 76 77 78 77 77 75 77 77 77 77 77 77 76 76 77 77 76 77 77 77 77 76 76 74 76 75 75 75 75 74 74 73 75 76 75 79 78 77 78 79 78 77 77 78 78 76 73 73 77 78
69 69 69 71 73 74 75 75 76 76 77 76 76 76 76 77 78 78 78 79 78 78 78 78 78 78 78 77 76 76 76 77 77 78 77 77 77 77 76 76 76 76 75 74 72 73 76 75 78 77 78 79 80 78 76 76 77 77 77 76 75 73 76
72 70 70 71 73 74 75 74 75 75 76 76 76 75 76 77 77 78 78 78 78 77 77 77 77 76 77 78 77 76 76 76 76 76 77 78 78 77 77 77 76 75 75 76 74 75 75 75 75 76 77 76 80 78 75 75 77 76 75 75 76 75 74
70 70 70 71 72 73 74 74 74 75 75 74 74 76 76 76 76 78 77 78 77 77 77 77 77 77 78 77 76 76 76 75 76 76 76 77 77 77 76 77 76 76 76 77 77 76 75 74 75 74 75 75 76 75 74 74 74 75 74 73 73 74 75
71 70 70 70 70 71 72 73 73 74 74 74 74 75 76 76 76 76 76 75 76 75 75 74 72 69 75 76 76 75 75 76 76 76 76 76 77 77 77 77 77 78 72 64 57 62 63 65 74 74 74 75 74 73 73 75 74 74 74 73 73 73 74
71 71 70 70 69 70 70 71 71 72 73 74 75 75 76 76 76 75 75 75 74 71 69 64 50 42 46 68 76 76 75 75 76 76 76 76 76 76 77 76 73 59 57 58 57 53 52 56 58 66 75 76 75 74 74 73 73 73 72 71 72 73 72
71 70 70 68 67 68 68 68 69 70 70 71 70 72 74 74 74 74 74 72 69 64 60 54 41 39 42 39 63 75 74 74 75 75 76 75 75 76 76 77 75 65 62 59 60 46 50 48 49 49 51 54 60 73 75 72 73 74 73 73 73 73 72
65 64 64 64 63 62 62 63 62 63 65 66 67 69 70 71 70 69 68 68 65 61 56 44 39 41 40 39 44 66 75 75 74 75 75 75 77 76 75 75 76 75 76 73 75 67 56 46 46 46 45 48 50 49 50 67 73 74 73 72 72 73 73
58 58 58 58 59 59 58 59 59 60 61 63 66 67 68 68 68 67 66 65 64 62 59 41 40 39 41 40 42 52 77 75 74 75 74 74 75 74 75 74 74 74 75 61 69 76 76 68 47 42 45 45 44 44 47 45 46 64 74 72 72 72 74
56 56 56 57 58 57 58 59 59 62 64 65 66 66 67 66 67 67 66 64 62 60 56 43 40 39 40 39 41 47 76 72 73 74 74 74 74 74 73 74 74 74 75 74 75 74 75 75 72 67 66 68 71 62 45 43 44 40 51 69 72 72 74
54 56 58 58 59 60 60 60 62 63 64 63 63 64 65 63 64 66 66 65 62 58 52 39 40 39 40 39 40 46 73 71 73 73 72 72 73 73 73 73 73 74 75 74 75 70 74 74 74 73 73 73 74 75 74 71 69 71 70 70 73 74 74
56 56 56 56 54 54 55 55 57 58 60 61 61 61 61 62 62 64 64 64 62 59 53 39 39 40 39 40 39 66 72 71 71 72 72 72 73 74 74 73 74 73 74 75 57 47 56 69 73 73 71 73 74 74 75 65 59 63 69 73 75 75 74
55 56 56 56 56 55 54 53 56 60 58 58 58 58 58 59 61 62 62 63 61 59 56 44 39 40 40 38 51 72 70 73 72 71 72 71 73 73 72 73 73 73 72 73 50 47 43 48 70 71 71 72 72 73 74 69 46 43 40 40 40 39 39
55 54 54 54 54 55 54 54 54 57 57 57 56 57 57 57 57 56 56 56 59 58 55 45 39 40 40 38 47 67 71 72 70 71 71 71 73 73 69 52 60 70 71 62 40 44 39 51 67 70 71 70 70 71 72 73 67 61 39 39 40 40 40
54 54 53 53 54 54 55 55 56 58 60 62 62 63 63 61 59 59 58 58 54 58 58 50 40 39 39 40 49 65 69 71 69 69 70 70 71 72 71 62 50 54 57 49 38 41 39 48 65 69 70 69 69 70 71 73 71 69 66 65 64 61 58
54 54 53 54 55 55 56 57 58 59 60 63 63 63 63 62 60 59 59 60 59 59 59 56 47 39 39 40 39 55 67 66 66 65 67 68 68 71 70 70 53 40 40 39 41 38 42 39 53 64 68 69 68 67 72 71 71 72 70 69 69 68 67
51 53 54 55 56 56 57 56 57 57 57 58 59 59 58 60 60 60 60 60 60 58 57 57 50 38 40 39 38 44 64 61 61 62 64 65 68 68 70 71 65 40 38 37 38 37 38 39 40 52 60 65 68 55 52 69 70 56 70 69 69 68 68
50 50 51 53 53 54 55 56 56 56 57 56 55 56 58 60 61 60 60 59 59 58 54 48 56 42 39 40 38 36 55 57 52 57 59 64 65 66 67 67 68 45 37 37 38 37 37 38 39 47 54 46 43 42 55 59 66 68 68 68 69 68 67
50 51 51 52 52 52 54 55 55 56 56 57 56 56 56 57 58 58 59 61 61 59 58 54 44 50 39 39 37 36 35 45 39 51 58 59 60 62 65 64 60 41 38 37 38 38 38 37 39 48 42 41 41 40 44 58 60 61 63 66 65 64 65
53 53 53 53 53 52 53 54 56 56 56 56 56 56 58 57 57 56 57 58 58 59 59 60 46 43 46 37 39 38 37 33 34 50 53 56 59 60 62 60 51 38 38 38 37 39 39 39 42 40 39 39 39 40 48 52 54 56 56 60 62 61 63
MSLP
1016.77 1017.05 1017.13 1017.21 1017.17 1017.33 1017.69 1017.89 1017.93 1018.09 1018.09 1018.13 1018.41 1018.49 1018.61 1018.89 1019.05 1019.21 1019.21 1019.25 1019.37 1019.45 1019.69 1019.93 1020.05 1020.09 1020.09 1020.25 1020.49 1020.57 1020.57 1020.57 1020.81 1020.97 1021.25 1021.13 1021.61 1021.49 1021.49 1021.77 1021.65 1021.25 1020.93 1021.45 1021.45 1021.41 1021.77 1023.69 1024.53 1024.33 1024.41 1024.25 1023.97 1024.05 1024.01 1024.05 1023.85 1024.05 1024.13 1024.05 1024.13 1024.21 1024.25
1016.45 1016.69 1016.81 1016.97 1017.29 1017.41 1017.85 1017.85 1017.93 1017.97 1018.09 1018.21 1018.29 1018.57 1018.65 1018.81 1019.05 1019.21 1019.29 1019.33 1019.41 1019.53 1019.61 1019.65 1019.85 1020.01 1020.29 1020.53 1020.73 1020.81 1020.85 1020.89 1020.73 1020.81 1020.97 1021.13 1021.17 1021.09 1021.65 1021.85 1021.13 1020.97 1021.05 1021.01 1021.13 1021.45 1021.69 1023.25 1023.93 1024.45 1024.89 1024.53 1024.37 1024.45 1024.45 1024.17 1024.13 1024.01 1024.21 1024.21 1024.17 1024.29 1024.53
1016.37 1016.53 1016.65 1017.09 1017.33 1017.53 1017.85 1018.01 1018.09 1018.17 1018.25 1018.41 1018.45 1018.49 1018.61 1018.81 1019.05 1019.13 1019.21 1019.29 1019.41 1019.45 1019.45 1019.49 1019.73 1020.09 1020.33 1020.53 1020.69 1020.77 1020.89 1021.01 1020.77 1020.85 1021.01 1020.97 1021.01 1020.85 1021.01 1021.25 1021.09 1021.09 1021.13 1021.17 1021.45 1021.85 1021.69 1021.77 1022.77 1023.77 1024.25 1024.33 1024.69 1024.69 1024.41 1024.25 1024.13 1024.25 1024.29 1024.41 1024.33 1024.21 1024.45
1016.49 1016.65 1016.93 1017.25 1017.33 1017.61 1017.85 1018.05 1018.13 1018.21 1018.29 1018.41 1018.57 1018.73 1018.73 1018.65 1018.93 1019.01 1019.13 1019.21 1019.29 1019.41 1019.41 1019.57 1019.77 1019.89 1020.13 1020.41 1020.61 1020.77 1020.93 1021.01 1020.85 1020.85 1020.97 1020.97 1021.01 1020.97 1020.89 1020.85 1021.09 1021.17 1021.77 1022.01 1022.53 1022.21 1022.17 1022.05 1022.41 1023.25 1023.57 1023.33 1024.01 1024.73 1024.25 1023.89 1024.05 1024.05 1024.09 1024.25 1024.33 1024.45 1024.57
1016.53 1016.77 1017.01 1017.29 1017.41 1017.57 1017.69 1017.93 1017.93 1018.09 1018.29 1018.41 1018.57 1018.69 1018.85 1018.89 1019.05 1019.17 1019.13 1019.17 1019.29 1019.37 1019.41 1019.37 1019.61 1019.73 1019.93 1020.17 1020.45 1020.69 1020.81 1020.85 1020.81 1020.97 1020.93 1021.05 1021.17 1021.01 1021.09 1020.73 1021.41 1021.73 1021.13 1022.01 1022.17 1022.53 1022.49 1022.89 1022.41 1022.81 1022.93 1023.01 1023.41 1023.45 1024.09 1024.29 1023.81 1023.93 1023.97 1024.05 1024.13 1024.41 1024.49
1016.57 1016.73 1016.97 1017.25 1017.25 1017.41 1017.57 1017.81 1017.97 1018.17 1018.29 1018.49 1018.57 1018.69 1018.85 1018.97 1019.01 1019.21 1019.25 1019.25 1019.29 1019.33 1019.37 1019.37 1019.45 1019.57 1019.73 1019.97 1020.25 1020.53 1020.61 1020.81 1020.89 1020.93 1020.85 1020.97 1021.09 1021.01 1020.97 1020.81 1021.33 1021.81 1021.65 1021.29 1021.37 1021.93 1022.53 1023.29 1022.45 1022.57 1022.41 1022.45 1023.21 1023.77 1024.01 1024.05 1024.25 1023.89 1023.93 1024.09 1024.09 1024.21 1024.37
1016.65 1016.77 1016.93 1017.17 1017.21 1017.25 1017.45 1017.77 1017.89 1017.97 1018.21 1018.37 1018.53 1018.61 1018.65 1018.81 1018.89 1018.97 1019.05 1019.13 1019.17 1019.29 1019.41 1019.45 1019.45 1019.53 1019.65 1019.77 1020.01 1020.37 1020.49 1020.57 1020.69 1020.89 1020.81 1020.89 1020.97 1020.97 1020.97 1021.21 1020.77 1021.85 1021.37 1021.05 1021.17 1021.61 1022.33 1022.65 1022.45 1022.21 1022.61 1022.53 1022.97 1023.49 1023.57 1023.49 1023.65 1024.09 1024.21 1023.89 1023.93 1024.05 1024.25
1016.41 1016.61 1016.77 1016.97 1017.17 1017.33 1017.45 1017.69 1017.77 1017.85 1018.09 1018.25 1018.37 1018.41 1018.57 1018.77 1018.89 1018.93 1019.01 1019.13 1019.25 1019.37 1019.49 1019.53 1019.53 1019.57 1019.61 1019.73 1019.81 1020.13 1020.21 1020.41 1020.61 1020.77 1020.81 1020.81 1020.93 1020.97 1021.09 1021.09 1020.97 1020.97 1021.09 1020.81 1020.85 1021.29 1021.45 1022.01 1022.57 1021.89 1022.29 1023.17 1023.37 1023.13 1023.41 1023.21 1023.53 1023.61 1024.05 1024.01 1023.93 1024.13 1024.33
1016.09 1016.29 1016.53 1016.85 1017.13 1017.29 1017.45 1017.61 1017.81 1017.93 1017.93 1018.09 1018.25 1018.49 1018.69 1018.77 1018.93 1018.97 1019.01 1019.09 1019.21 1019.41 1019.53 1019.57 1019.53 1019.45 1019.61 1019.81 1019.85 1020.01 1020.21 1020.21 1020.57 1020.65 1020.61 1020.65 1020.81 1020.85 1020.89 1020.85 1021.41 1021.05 1020.73 1020.77 1020.61 1020.73 1021.17 1021.01 1021.05 1021.13 1021.77 1022.41 1023.05 1023.89 1023.53 1023.73 1023.49 1023.81 1023.69 1024.13 1024.09 1024.09 1024.49
1016.25 1016.45 1016.61 1016.97 1017.21 1017.25 1017.37 1017.57 1017.81 1017.93 1018.01 1018.17 1018.45 1018.57 1018.81 1018.81 1018.89 1018.89 1019.01 1019.17 1019.29 1019.45 1019.53 1019.53 1019.53 1019.53 1019.61 1019.77 1019.81 1019.93 1020.05 1020.13 1020.25 1020.41 1020.37 1020.41 1020.53 1020.69 1020.73 1020.85 1020.89 1020.57 1020.81 1020.77 1020.65 1020.57 1020.57 1020.81 1020.89 1021.05 1021.61 1022.37 1022.37 1022.97 1023.65 1023.97 1023.89 1024.17 1023.93 1023.77 1024.33 1024.45 1024.37
1016.41 1016.45 1016.61 1016.97 1017.13 1017.29 1017.49 1017.65 1017.85 1018.13 1018.25 1018.29 1018.53 1018.65 1018.77 1018.89 1018.89 1018.97 1019.09 1019.29 1019.37 1019.45 1019.57 1019.53 1019.45 1019.57 1019.61 1019.65 1019.73 1019.73 1019.73 1019.85 1020.09 1020.09 1020.21 1020.25 1020.41 1020.49 1020.61 1020.73 1020.77 1020.69 1020.61 1020.77 1020.81 1020.85 1020.77 1020.93 1021.09 1022.09 1022.01 1022.13 1021.85 1022.37 1022.73 1023.25 1023.89 1023.61 1023.89 1023.61 1023.61 1024.33 1024.41
1016.37 1016.41 1016.57 1016.85 1017.05 1017.33 1017.61 1017.81 1018.01 1018.05 1018.17 1018.37 1018.53 1018.73 1018.81 1018.85 1018.89 1018.97 1019.09 1019.29 1019.41 1019.57 1019.57 1019.69 1019.65 1019.65 1019.61 1019.73 1019.73 1019.73 1019.77 1019.81 1019.93 1020.09 1020.09 1020.17 1020.29 1020.37 1020.65 1020.85 1020.81 1020.85 1020.85 1020.97 1020.89 1020.93 1020.93 1021.09 1020.89 1021.89 1022.29 1022.09 1021.73 1021.73 1021.85 1022.17 1023.77 1023.53 1023.29 1023.97 1023.57 1023.73 1024.25
1016.33 1016.41 1016.61 1016.93 1017.17 1017.33 1017.57 1017.77 1017.97 1018.13 1018.25 1018.25 1018.45 1018.61 1018.69 1018.81 1018.89 1019.01 1019.05 1019.25 1019.49 1019.49 1019.65 1019.69 1019.61 1019.69 1019.65 1019.69 1019.73 1019.85 1019.93 1019.85 1019.89 1019.97 1020.01 1020.01 1020.09 1020.29 1020.53 1020.73 1020.81 1020.77 1020.85 1020.81 1020.89 1020.93 1021.09 1021.13 1021.05 1020.97 1021.33 1021.77 1021.85 1022.01 1021.85 1022.05 1023.05 1023.93 1023.41 1023.65 1023.73 1023.85 1024.09
1016.49 1016.49 1016.73 1016.93 1017.13 1017.33 1017.57 1017.77 1017.93 1017.97 1018.09 1018.25 1018.41 1018.57 1018.65 1018.77 1018.85 1018.97 1019.09 1019.21 1019.29 1019.49 1019.73 1019.77 1019.69 1019.65 1019.65 1019.77 1019.65 1019.69 1019.77 1019.73 1019.85 1019.97 1020.01 1020.13 1020.05 1020.21 1020.37 1020.53 1020.69 1020.73 1020.77 1020.73 1020.77 1021.01 1021.09 1021.29 1021.33 1021.33 1021.45 1021.73 1021.81 1022.13 1022.05 1022.09 1022.89 1023.77 1023.69 1023.37 1023.69 1023.81 1024.01
1016.53 1016.57 1016.81 1017.05 1017.21 1017.45 1017.69 1017.81 1017.89 1017.97 1018.17 1018.25 1018.29 1018.49 1018.57 1018.73 1018.85 1018.93 1019.05 1019.13 1019.21 1019.41 1019.57 1019.69 1019.65 1019.57 1019.65 1019.81 1019.89 1019.81 1019.81 1019.77 1019.69 1019.81 1019.97 1020.05 1020.13 1020.17 1020.29 1020.41 1020.53 1020.73 1020.69 1020.81 1021.09 1021.05 1021.29 1021.25 1021.25 1021.29 1021.41 1021.53 1021.77 1022.09 1021.81 1021.85 1022.57 1023.37 1024.17 1023.85 1023.73 1023.53 1024.05
1016.81 1016.85 1017.05 1017.13 1017.29 1017.49 1017.73 1017.85 1017.89 1018.09 1018.17 1018.29 1018.33 1018.41 1018.61 1018.81 1018.85 1018.97 1019.13 1019.21 1019.29 1019.45 1019.49 1019.65 1019.65 1019.61 1019.69 1019.77 1019.85 1019.93 1019.85 1019.81 1019.93 1020.05 1020.09 1020.09 1020.01 1020.13 1020.33 1020.45 1020.61 1020.77 1020.81 1021.17 1021.29 1021.17 1021.13 1021.09 1020.97 1021.21 1021.49 1021.45 1021.53 1021.89 1021.81 1021.61 1022.25 1023.13 1023.69 1023.89 1023.57 1023.73 1023.93
1016.61 1016.81 1017.09 1017.17 1017.33 1017.49 1017.61 1017.81 1017.85 1017.97 1018.05 1018.21 1018.37 1018.49 1018.61 1018.73 1018.89 1019.01 1019.17 1019.25 1019.37 1019.49 1019.57 1019.65 1019.65 1019.57 1019.61 1019.69 1019.81 1019.85 1019.85 1019.93 1019.89 1019.89 1019.93 1019.93 1019.97 1020.13 1020.29 1020.45 1020.61 1020.77 1020.89 1021.21 1021.33 1021.33 1021.21 1021.13 1021.13 1021.25 1021.57 1021.65 1021.69 1021.93 1021.93 1022.09 1022.05 1022.33 1023.09 1023.61 1023.65 1023.37 1023.61
1016.53 1016.93 1017.13 1017.21 1017.37 1017.49 1017.69 1017.81 1017.85 1017.89 1018.05 1018.25 1018.41 1018.57 1018.65 1018.73 1018.93 1019.05 1019.25 1019.29 1019.37 1019.49 1019.57 1019.57 1019.65 1019.73 1019.77 1019.73 1019.77 1019.85 1019.81 1019.81 1019.89 1019.93 1020.01 1020.13 1020.17 1020.05 1020.25 1020.33 1020.45 1020.61 1020.89 1021.13 1021.33 1021.33 1021.25 1021.33 1021.13 1021.25 1021.61 1021.61 1021.65 1021.85 1022.09 1022.29 1022.21 1022.25 1022.69 1023.21 1023.45 1023.09 1023.13
1016.37 1016.45 1016.81 1017.29 1017.45 1017.57 1017.69 1017.85 1017.97 1017.97 1018.05 1018.29 1018.45 1018.53 1018.69 1018.77 1018.89 1019.05 1019.09 1019.13 1019.25 1019.37 1019.41 1019.53 1019.57 1019.65 1019.69 1019.81 1019.81 1019.85 1019.85 1019.89 1019.85 1019.89 1019.97 1019.93 1020.01 1020.09 1020.13 1020.25 1020.29 1020.49 1020.77 1021.01 1021.45 1021.41 1021.21 1021.45 1021.29 1021.37 1021.49 1021.41 1021.37 1021.73 1022.17 1022.33 1022.37 1022.41 1022.57 1022.65 1023.01 1023.37 1023.13
1016.05 1016.57 1017.01 1017.25 1017.37 1017.53 1017.77 1017.97 1018.05 1018.17 1018.17 1018.33 1018.49 1018.61 1018.73 1018.89 1018.93 1018.93 1019.01 1019.17 1019.29 1019.41 1019.49 1019.53 1019.61 1019.69 1019.69 1019.73 1019.85 1019.93 1020.01 1020.01 1020.05 1020.05 1019.97 1019.93 1020.01 1020.05 1020.05 1020.13 1020.29 1020.37 1020.57 1020.69 1020.97 1021.09 1021.21 1021.37 1021.41 1021.49 1021.37 1021.57 1021.37 1021.65 1022.25 1022.29 1022.33 1022.49 1022.69 1022.73 1022.65 1022.89 1023.21
1016.45 1016.65 1016.89 1017.17 1017.37 1017.53 1017.73 1017.97 1018.13 1018.29 1018.37 1018.61 1018.69 1018.65 1018.77 1018.97 1019.01 1018.97 1019.13 1019.21 1019.29 1019.41 1019.61 1019.69 1019.65 1019.69 1019.65 1019.77 1019.89 1020.01 1020.01 1020.13 1020.05 1020.17 1020.17 1020.09 1020.13 1020.17 1020.21 1020.17 1020.25 1020.37 1020.41 1020.49 1020.69 1020.85 1021.05 1021.33 1021.41 1021.61 1021.49 1021.73 1021.77 1021.93 1022.17 1022.25 1022.37 1022.41 1022.65 1022.81 1022.85 1022.89 1022.85
1016.73 1016.89 1017.13 1017.45 1017.61 1017.73 1017.93 1018.13 1018.25 1018.37 1018.57 1018.73 1018.77 1018.77 1018.81 1018.93 1019.17 1019.29 1019.41 1019.49 1019.65 1019.77 1019.73 1019.85 1020.17 1020.41 1020.01 1019.85 1019.97 1020.05 1020.09 1020.05 1020.17 1020.13 1020.21 1020.21 1020.21 1020.21 1020.21 1020.33 1020.29 1020.37 1020.69 1020.93 1021.05 1021.09 1021.21 1021.33 1021.41 1021.61 1021.65 1021.73 1021.89 1022.05 1022.09 1022.01 1022.09 1022.33 1022.33 1022.45 1022.65 1022.53 1022.65
1016.53 1016.85 1017.29 1017.69 1017.89 1018.01 1018.21 1018.41 1018.49 1018.61 1018.65 1018.77 1018.81 1018.81 1018.81 1018.93 1019.09 1019.29 1019.53 1019.73 1019.93 1020.17 1020.53 1021.05 1021.93 1021.57 1021.09 1020.49 1020.01 1020.01 1020.17 1020.17 1020.13 1020.17 1020.21 1020.25 1020.33 1020.25 1020.25 1020.37 1020.77 1021.05 1021.13 1021.25 1021.33 1021.41 1021.57 1021.65 1021.73 1021.73 1021.49 1021.49 1021.65 1021.85 1022.01 1022.17 1022.21 1022.17 1022.25 1022.41 1022.45 1022.49 1022.65
1016.77 1017.17 1017.57 1017.89 1018.13 1018.33 1018.57 1018.73 1018.81 1018.93 1019.05 1019.13 1019.21 1019.17 1019.05 1019.13 1019.21 1019.29 1019.61 1020.05 1020.45 1020.93 1021.49 1022.21 1022.53 1022.09 1021.57 1021.17 1020.69 1020.17 1020.25 1020.25 1020.29 1020.25 1020.25 1020.33 1020.37 1020.41 1020.41 1020.33 1020.69 1021.21 1021.33 1021.45 1021.53 1021.69 1021.77 1021.89 1021.93 1021.97 1021.93 1021.89 1021.73 1021.69 1021.77 1022.01 1022.09 1021.89 1021.93 1021.97 1021.93 1022.13 1022.33
1017.69 1018.09 1018.37 1018.49 1018.73 1019.05 1019.21 1019.37 1019.53 1019.61 1019.65 1019.65 1019.61 1019.57 1019.61 1019.65 1019.77 1019.93 1020.17 1020.49 1020.89 1021.45 1022.17 1022.97 1022.61 1022.29 1021.89 1021.49 1021.25 1020.65 1020.17 1020.29 1020.37 1020.33 1020.33 1020.29 1020.21 1020.25 1020.41 1020.53 1020.53 1020.69 1020.73 1020.85 1020.97 1021.45 1021.77 1021.93 1022.05 1022.13 1022.25 1022.21 1022.17 1022.05 1021.97 1021.93 1021.81 1021.85 1021.93 1022.01 1021.89 1021.85 1022.01
1018.93 1018.93 1019.17 1019.37 1019.45 1019.57 1019.73 1019.93 1020.09 1020.21 1020.29 1020.21 1020.13 1020.09 1020.05 1020.09 1020.21 1020.29 1020.57 1020.89 1021.21 1021.61 1022.13 1023.13 1022.89 1022.49 1022.09 1021.69 1021.37 1021.01 1020.05 1020.17 1020.25 1020.33 1020.45 1020.45 1020.49 1020.57 1020.53 1020.61 1020.69 1020.77 1020.77 1021.25 1021.13 1020.89 1020.97 1021.49 1021.93 1022.25 1022.29 1022.33 1022.29 1022.17 1022.05 1022.05 1022.21 1022.17 1021.73 1021.77 1021.93 1021.81 1021.69
1019.37 1019.49 1019.49 1019.61 1019.77 1019.97 1020.13 1020.33 1020.37 1020.41 1020.41 1020.37 1020.33 1020.33 1020.37 1020.41 1020.41 1020.53 1020.85 1021.13 1021.57 1022.05 1022.49 1023.21 1023.01 1022.61 1022.29 1021.97 1021.53 1021.09 1020.29 1020.49 1020.37 1020.41 1020.49 1020.57 1020.61 1020.65 1020.73 1020.73 1020.73 1020.81 1020.77 1020.93 1020.93 1021.01 1021.01 1021.01 1021.37 1021.81 1021.97 1021.97 1021.77 1021.89 1022.17 1022.21 1022.21 1022.37 1022.45 1022.13 1021.77 1021.81 1021.41
1020.01 1019.97 1019.85 1020.01 1020.13 1020.25 1020.37 1020.45 1020.37 1020.45 1020.61 1020.73 1020.69 1020.65 1020.73 1020.89 1020.89 1020.85 1021.01 1021.29 1021.69 1022.33 1023.25 1023.61 1023.13 1022.61 1022.25 1021.93 1021.57 1021.13 1020.49 1020.57 1020.41 1020.49 1020.61 1020.61 1020.69 1020.65 1020.73 1020.81 1020.81 1020.73 1020.73 1020.81 1020.73 1021.05 1021.09 1021.13 1021.17 1021.21 1021.25 1021.25 1021.21 1021.09 1021.21 1021.49 1021.77 1021.81 1021.89 1021.85 1021.69 1021.53 1021.37
1020.29 1020.57 1020.61 1020.61 1020.81 1021.09 1021.25 1021.37 1021.29 1021.21 1021.13 1021.25 1021.25 1021.25 1021.25 1021.17 1021.21 1021.25 1021.33 1021.53 1021.81 1022.37 1023.25 1023.65 1023.29 1022.81 1022.41 1022.01 1021.65 1020.85 1020.57 1020.61 1020.57 1020.49 1020.57 1020.57 1020.53 1020.49 1020.53 1020.65 1020.65 1020.65 1020.69 1020.57 1021.05 1021.41 1021.57 1021.33 1021.09 1021.09 1021.09 1020.97 1020.89 1020.81 1020.73 1020.77 1020.93 1021.13 1021.21 1021.21 1021.21 1021.21 1021.21
1020.81 1020.93 1021.13 1021.29 1021.21 1021.45 1021.69 1022.01 1021.61 1021.33 1021.45 1021.65 1021.61 1021.73 1021.73 1021.65 1021.61 1021.65 1021.73 1021.73 1022.01 1022.45 1023.01 1023.65 1023.45 1023.05 1022.69 1022.33 1021.53 1020.69 1020.81 1020.49 1020.61 1020.69 1020.65 1020.69 1020.53 1020.57 1020.61 1020.65 1020.65 1020.57 1020.61 1020.73 1021.49 1021.61 1021.81 1021.81 1021.25 1021.01 1020.89 1020.81 1020.69 1020.65 1020.45 1020.61 1021.09 1021.29 1021.41 1021.53 1021.61 1021.69 1021.73
1021.41 1021.57 1021.69 1021.77 1021.81 1021.97 1022.09 1022.17 1022.17 1021.93 1021.77 1021.69 1022.05 1022.17 1022.17 1022.33 1022.41 1022.49 1022.61 1022.77 1022.41 1022.61 1023.13 1023.73 1023.61 1023.37 1023.09 1022.77 1022.29 1021.29 1020.81 1020.69 1020.85 1020.81 1020.69 1020.81 1020.57 1020.49 1020.77 1021.21 1021.29 1020.93 1020.77 1021.73 1022.33 1022.21 1022.33 1022.13 1021.37 1020.97 1020.81 1020.73 1020.73 1020.65 1020.49 1020.29 1020.73 1021.13 1021.57 1021.65 1021.65 1021.65 1021.65
1021.93 1022.09 1022.21 1022.29 1022.29 1022.33 1022.33 1022.37 1022.33 1022.05 1021.73 1021.53 1021.61 1021.53 1021.65 1021.89 1022.17 1022.33 1022.53 1022.69 1022.85 1022.53 1022.81 1023.49 1023.85 1023.73 1023.57 1023.33 1022.81 1021.69 1021.17 1020.89 1020.97 1021.01 1020.97 1020.85 1020.85 1020.65 1020.73 1021.09 1021.49 1021.65 1021.85 1022.33 1022.49 1022.61 1022.61 1022.45 1021.53 1020.93 1020.69 1020.69 1020.61 1020.49 1020.21 1020.05 1020.29 1020.57 1020.89 1021.13 1021.17 1021.29 1021.33
1022.41 1022.45 1022.53 1022.57 1022.49 1022.49 1022.53 1022.37 1022.25 1022.09 1021.89 1021.57 1021.53 1021.57 1021.69 1021.81 1022.09 1022.29 1022.37 1022.41 1022.61 1022.57 1022.61 1023.05 1023.89 1023.97 1023.97 1023.73 1023.49 1022.69 1021.57 1021.49 1021.41 1021.57 1021.37 1021.17 1021.05 1020.81 1020.77 1020.85 1021.73 1022.25 1022.49 1022.73 1022.93 1023.05 1022.97 1022.97 1022.57 1021.41 1020.81 1020.53 1020.53 1020.33 1019.93 1019.89 1019.85 1019.97 1020.13 1020.29 1020.29 1020.41 1020.49
1023.01 1022.93 1022.77 1022.73 1022.69 1022.61 1022.49 1022.53 1022.45 1022.33 1022.29 1022.25 1022.13 1022.21 1022.25 1022.17 1022.17 1022.21 1022.33 1022.41 1022.53 1022.81 1023.05 1022.93 1023.65 1024.01 1024.09 1024.05 1023.85 1023.33 1022.09 1022.29 1022.25 1022.01 1021.69 1021.49 1021.13 1020.89 1020.77 1020.61 1021.33 1022.97 1022.93 1023.13 1023.25 1023.33 1023.33 1023.21 1023.13 1022.69 1021.73 1020.81 1020.33 1021.17 1021.25 1020.05 1019.61 1019.93 1019.93 1019.97 1020.01 1019.93 1019.97
1023.41 1023.45 1023.37 1023.21 1023.13 1023.01 1022.89 1022.73 1022.69 1022.57 1022.45 1022.53 1022.61 1022.61 1022.49 1022.17 1022.05 1022.17 1022.33 1022.57 1022.69 1022.81 1023.33 1023.65 1023.37 1023.89 1024.13 1024.25 1024.13 1024.05 1023.09 1023.09 1023.69 1023.01 1022.33 1021.69 1021.41 1021.17 1021.05 1021.09 1021.09 1022.49 1022.81 1023.09 1023.37 1023.61 1023.65 1023.53 1023.33 1023.13 1022.25 1021.81 1021.53 1021.49 1021.61 1021.17 1020.17 1019.85 1019.81 1019.77 1019.61 1019.53 1019.57
1023.69 1023.57 1023.61 1023.53 1023.41 1023.37 1023.17 1023.01 1022.97 1022.85 1022.73 1022.57 1022.61 1022.61 1022.65 1022.61 1022.41 1022.29 1022.25 1022.21 1022.49 1022.77 1022.97 1023.41 1023.81 1023.73 1024.17 1024.37 1024.53 1024.53 1024.53 1024.17 1024.29 1023.77 1022.77 1022.29 1022.05 1021.65 1021.45 1021.45 1021.69 1022.57 1022.85 1023.09 1023.21 1023.21 1023.25 1023.29 1023.13 1022.57 1022.33 1022.25 1022.17 1022.01 1021.93 1021.33 1020.93 1020.53 1019.89 1019.45 1019.37 1019.41 1019.29
1023.61 1023.61 1023.61 1023.53 1023.53 1023.53 1023.41 1023.21 1023.05 1022.93 1022.97 1022.77 1022.65 1022.57 1022.41 1022.57 1022.49 1022.57 1022.49 1022.45 1022.61 1022.69 1022.81 1022.69 1023.65 1023.97 1024.09 1024.37 1024.45 1024.53 1024.61 1024.65 1024.61 1024.01 1023.65 1023.01 1022.37 1022.13 1021.81 1022.05 1022.69 1023.13 1023.13 1023.13 1023.13 1022.93 1022.73 1022.65 1022.57 1022.37 1022.29 1022.17 1022.09 1022.09 1022.05 1021.69 1021.41 1020.93 1020.49 1019.77 1019.33 1019.29 1019.29
Wind_Speed
9 9 9 8 8 8 8 8 7 7 7 6 5 5 6 6 5 5 6 6 6 6 6 6 6 5 5 6 5 5 4 4 5 4 5 5 6 5 4 4 4 3 5 5 6 5 5 7 5 6 5 4 6 5 5 5 5 5 5 4 5 6 5
10 9 8 8 8 8 9 8 7 7 6 6 6 5 5 6 6 6 6 6 6 6 5 6 6 6 6 6 6 5 5 4 4 3 3 4 5 4 5 4 4 4 5 5 2 5 4 6 7 6 6 6 6 5 3 4 4 5 4 4 5 6 6
10 9 9 9 9 9 9 8 7 7 6 6 6 6 6 7 7 7 6 6 6 6 5 6 7 7 6 6 6 5 5 5 3 4 4 4 5 3 6 7 5 4 3 4 5 6 6 6 6 8 8 9 8 6 5 6 6 5 5 5 5 5 5
11 11 10 10 9 9 9 9 8 7 6 6 6 5 6 6 6 6 6 6 5 5 5 6 6 7 7 6 6 6 6 5 5 4 4 3 4 4 5 4 5 5 5 1 2 4 3 5 7 9 8 7 8 8 6 6 6 7 6 5 5 5 4
12 10 11 11 11 11 10 9 8 7 6 6 6 6 6 6 6 5 5 5 5 5 5 5 6 6 6 7 6 6 5 6 4 4 5 5 5 4 6 5 1 3 2 3 4 4 3 3 7 8 8 8 8 7 7 6 6 6 6 6 6 5 4
11 11 11 11 10 9 9 9 8 8 7 7 6 6 6 7 6 6 6 5 5 4 4 5 5 6 6 6 7 7 6 6 6 6 6 5 5 5 5 5 5 2 3 2 1 2 1 5 4 8 7 8 7 8 8 7 6 6 5 5 5 5 5
10 10 9 9 9 8 8 8 8 7 7 7 7 6 6 6 5 5 5 5 5 5 4 4 4 5 5 5 6 6 6 5 5 6 5 5 5 5 2 3 5 7 4 2 3 3 4 7 6 7 7 6 8 8 8 7 7 7 6 5 5 5 5
10 10 9 8 8 8 7 8 7 7 6 7 7 6 6 5 5 5 5 6 6 6 5 4 3 3 4 4 5 6 5 5 5 5 5 5 5 6 5 6 2 4 5 5 5 5 5 5 6 7 7 9 7 6 7 6 7 6 7 6 5 6 5
8 9 9 8 8 7 8 8 7 7 6 6 6 6 6 5 5 5 6 7 7 6 5 4 3 4 4 4 5 6 6 5 6 7 5 6 5 6 6 5 6 7 4 4 5 5 7 5 5 6 6 6 7 7 6 6 5 6 7 7 6 6 7
10 11 9 10 9 8 8 8 7 6 6 6 6 6 6 5 5 5 5 6 6 5 5 3 3 3 4 5 5 6 6 7 6 7 6 5 5 5 5 6 5 4 5 4 4 4 4 3 5 5 6 7 6 6 7 7 6 6 8 7 7 7 8
9 11 10 11 10 9 8 7 7 7 7 6 6 5 6 6 6 6 6 5 6 5 4 3 3 3 4 5 5 5 5 6 6 5 5 5 5 5 5 6 5 4 4 4 5 3 4 5 5 6 4 6 3 5 6 7 6 6 7 7 6 8 8
9 10 10 11 10 9 10 8 8 8 7 7 7 7 7 7 6 6 6 6 6 6 5 4 3 4 5 5 5 5 5 5 5 6 5 5 5 5 6 6 5 5 4 5 4 4 4 5 5 9 10 8 1 2 5 5 7 6 6 6 6 8 9
9 10 10 11 10 10 10 10 9 9 8 7 7 7 7 7 6 6 6 6 6 6 5 4 4 4 4 4 4 4 4 4 5 5 6 5 4 5 6 7 7 5 5 5 5 4 4 5 4 4 4 2 3 2 2 4 7 8 6 6 6 8 10
9 10 11 12 10 10 10 9 9 8 8 7 7 7 7 7 7 6 6 7 7 5 5 4 4 4 4 5 4 4 4 4 5 5 5 5 4 5 5 6 7 6 6 6 5 5 5 5 5 5 5 6 3 4 4 4 8 9 6 5 6 7 9
8 8 11 11 10 9 9 9 9 8 8 7 7 7 7 6 6 6 6 7 7 6 5 5 4 4 5 5 5 3 4 4 3 4 3 4 4 3 3 5 6 6 7 5 4 6 6 6 7 7 7 6 5 5 5 5 8 8 8 5 7 7 8
8 9 10 10 10 10 9 9 8 8 8 7 6 6 7 7 6 6 6 7 7 6 5 5 3 4 4 6 6 5 3 4 4 4 5 4 5 4 4 4 6 6 6 6 5 5 5 7 8 7 7 6 5 6 5 3 7 8 8 7 6 7 8
10 9 10 9 10 10 9 8 8 9 8 7 7 6 7 7 6 6 7 7 7 6 5 5 5 4 5 5 5 6 5 5 5 5 5 5 4 4 5 5 6 7 7 7 7 7 6 7 7 7 7 6 5 5 5 2 4 6 7 8 8 7 8
10 9 4 6 9 9 9 9 8 9 8 8 7 7 7 6 6 7 6 7 7 6 5 5 5 4 4 3 4 4 4 4 4 4 4 5 3 3 5 5 7 7 7 7 6 5 7 8 7 7 7 7 6 6 5 5 5 3 5 6 7 6 7
13 12 9 7 9 9 9 8 8 8 8 8 8 7 7 6 6 7 7 6 6 5 5 4 5 5 5 5 4 3 4 4 4 4 4 4 4 3 3 5 6 8 8 7 8 7 8 9 7 7 7 7 7 6 6 6 6 4 5 5 6 6 6
11 10 8 7 7 9 9 8 8 7 7 8 8 8 7 7 6 6 6 5 5 5 5 4 4 4 5 5 4 4 4 4 4 3 3 4 3 3 4 5 6 7 8 7 8 7 7 8 6 6 6 5 5 6 6 6 7 7 6 6 5 7 7
9 10 9 8 8 9 9 9 8 7 7 7 7 7 7 7 5 5 6 5 5 4 5 4 4 4 4 4 4 3 4 3 4 4 3 3 3 3 3 4 4 5 6 7 6 6 6 7 6 6 5 5 5 5 6 6 7 7 7 7 7 6 7
8 9 9 8 9 9 9 9 8 8 8 7 6 7 7 7 6 6 5 5 4 3 2 3 5 5 2 4 3 3 2 3 4 4 4 4 3 3 4 4 3 4 5 7 9 7 6 4 3 6 5 4 5 6 6 5 6 6 7 7 7 6 6
11 11 11 10 9 9 9 8 8 8 7 7 6 5 6 5 6 6 5 5 5 4 5 4 8 11 9 6 1 2 2 3 4 4 4 4 4 3 3 4 5 7 5 4 3 2 1 1 4 4 2 4 4 5 4 5 5 5 5 6 6 6 7
12 13 11 9 8 9 8 6 6 6 6 6 6 5 4 5 5 6 6 6 7 6 5 5 11 7 9 10 7 2 2 2 2 3 4 4 4 4 4 4 5 6 5 5 4 5 4 4 4 3 5 7 7 3 5 6 5 4 5 5 6 6 7
11 10 8 8 9 7 7 7 6 6 5 6 5 4 5 6 7 8 8 8 8 7 6 9 10 10 8 8 6 4 2 2 3 3 3 3 3 3 3 3 2 2 2 2 2 6 5 6 5 3 3 5 6 9 7 5 4 5 5 5 6 6 6
8 9 9 8 8 8 7 8 7 7 6 5 5 5 6 7 8 8 9 9 8 7 6 9 10 9 9 8 8 7 2 2 3 3 2 2 1 1 1 1 1 1 2 5 4 4 4 6 6 3 2 4 7 8 10 10 7 6 6 6 7 8 7
8 7 7 8 8 8 7 7 6 6 6 6 7 7 7 8 8 9 8 9 8 8 7 9 9 9 8 8 8 9 0 1 0 1 1 1 1 2 1 2 2 3 3 3 3 3 3 3 5 6 6 6 7 8 10 11 11 10 7 6 8 8 7
9 8 9 9 9 9 8 7 7 6 5 6 6 7 7 7 7 7 8 8 8 8 7 9 10 10 10 8 7 9 0 0 2 2 2 1 1 1 2 2 3 4 3 4 2 1 3 4 4 5 6 6 7 7 7 8 8 7 7 7 8 8 8
10 8 9 9 9 9 8 7 7 7 6 6 6 6 6 7 7 7 7 7 7 8 7 11 11 12 12 11 11 4 1 1 0 1 1 1 2 3 3 3 3 4 3 5 8 6 3 5 5 6 7 8 8 8 8 2 4 3 4 5 6 6 4
9 9 9 9 9 8 7 6 5 5 6 5 6 6 6 6 6 7 6 6 6 6 7 10 11 12 13 14 10 1 0 1 1 0 1 1 2 1 2 2 3 3 4 1 8 5 1 3 6 7 8 9 8 8 9 4 4 4 4 4 4 5 6
9 9 8 9 8 7 6 4 4 3 4 7 6 6 6 6 6 6 7 6 5 5 6 8 11 12 13 14 12 4 2 1 1 1 2 2 3 3 3 7 6 4 3 7 9 9 4 4 7 8 8 9 10 10 10 6 4 4 3 1 3 5 5
8 8 8 7 6 7 6 5 3 3 3 4 5 5 5 5 5 5 5 5 5 3 5 7 10 10 12 13 11 5 3 2 2 1 2 2 2 4 2 5 2 6 7 8 10 8 9 7 7 8 9 9 11 11 10 10 7 7 6 6 7 6 7
7 7 7 7 6 6 4 4 4 4 3 3 4 4 4 5 5 4 4 4 3 3 3 5 8 9 10 11 13 8 3 3 2 2 3 3 3 3 3 2 7 8 11 10 10 8 9 8 7 9 9 9 10 11 9 10 11 9 8 9 8 9 9
8 7 6 6 5 5 5 5 4 4 4 4 4 4 4 3 4 4 3 2 3 4 4 3 7 8 8 8 10 11 3 4 4 4 4 5 4 4 3 3 7 8 9 8 8 8 7 9 8 8 9 10 8 7 12 9 8 6 10 9 9 9 8
7 6 6 6 6 5 5 5 4 4 3 4 4 3 3 2 2 2 3 2 2 2 5 5 4 8 7 6 6 10 6 5 6 6 6 5 5 4 4 3 1 7 10 9 8 6 6 7 8 6 9 13 18 17 10 9 10 9 9 9 10 10 9
5 4 5 5 5 4 3 4 4 4 3 3 3 3 3 2 1 2 1 2 2 2 2 5 3 4 6 4 3 2 4 5 4 6 5 6 5 6 5 6 3 14 13 13 13 12 10 8 9 9 11 12 12 14 11 8 9 10 11 12 10 10 9
5 5 5 4 4 4 3 2 3 3 3 2 2 2 2 2 1 2 1 1 1 1 0 1 7 2 3 1 1 2 3 4 5 5 6 6 7 6 6 5 9 14 13 14 13 14 14 12 9 11 11 11 12 10 6 7 6 8 10 9 10 10 11
Wind_Direction
181 169 170 167 165 158 160 161 159 164 171 170 168 169 163 158 163 170 172 171 170 165 165 175 175 178 176 167 165 185 196 189 193 207 183 186 203 172 200 208 207 236 185 166 260 181 163 152 122 87 74 89 97 96 116 135 130 121 95 106 120 116 111
175 167 166 164 162 160 161 159 164 160 161 165 169 163 169 158 159 168 172 170 171 165 175 173 171 168 169 159 168 182 184 193 199 211 205 194 216 187 178 215 212 185 160 202 158 278 145 157 147 143 120 109 113 108 108 120 111 112 100 94 90 102 104
173 166 166 162 164 162 159 159 159 160 159 166 168 173 169 158 171 167 172 170 167 167 184 167 163 164 164 165 171 176 177 190 194 196 206 197 218 209 198 197 200 192 203 171 185 195 178 184 153 158 152 149 137 132 145 128 133 131 131 123 133 116 106
168 167 164 163 161 164 161 161 162 160 164 160 161 161 173 161 159 166 167 165 164 165 182 167 176 171 164 161 163 169 177 192 195 190 200 216 207 213 215 217 223 208 206 137 140 234 174 179 140 149 161 157 134 139 147 132 139 146 134 131 121 118 115
166 168 167 164 165 164 162 161 162 161 159 155 163 158 166 162 159 162 163 163 165 173 173 171 165 166 165 162 165 174 176 191 189 196 203 195 213 207 215 216 155 314 348 135 222 343 332 34 143 153 157 141 152 145 140 157 155 138 142 143 131 122 130
168 169 170 165 166 163 162 163 163 162 159 161 164 161 158 167 167 165 168 173 165 172 174 169 168 168 163 166 162 168 173 180 184 196 201 197 199 222 202 230 143 185 218 235 230 184 65 193 167 159 150 159 144 135 148 154 152 150 140 144 142 139 131
169 175 168 164 167 164 165 163 167 161 160 161 160 161 155 167 168 168 173 172 166 164 171 169 168 178 171 170 164 158 166 174 177 191 218 191 197 221 244 255 211 151 237 181 190 182 172 209 169 156 157 147 145 155 152 168 149 152 153 148 143 133 131
172 173 167 164 167 165 165 162 166 159 158 158 160 149 153 162 153 169 173 168 164 159 160 161 164 171 183 184 169 166 163 171 177 190 211 195 197 206 197 226 248 206 200 189 193 197 193 209 167 167 164 150 159 158 158 149 165 168 145 143 149 139 129
168 170 163 160 165 168 165 164 161 160 152 153 150 147 160 160 160 161 166 157 156 155 156 159 178 176 171 170 166 161 170 171 177 197 195 190 203 196 200 216 188 217 191 206 211 194 190 206 179 153 169 158 164 158 160 157 170 129 154 147 147 137 135
164 168 163 159 164 167 162 160 157 155 143 148 141 152 159 157 158 162 152 150 152 150 148 159 167 173 175 167 167 162 167 167 180 186 192 193 180 184 199 201 232 204 196 202 227 180 214 167 202 139 147 174 187 169 169 162 161 148 161 159 154 147 145
169 172 165 164 167 163 160 161 154 153 153 145 148 153 156 153 153 157 147 155 151 147 147 149 165 168 186 176 168 168 157 164 176 171 185 185 167 177 176 191 207 220 178 204 196 186 192 199 140 131 153 232 201 202 185 170 150 163 151 167 156 148 154
177 171 166 168 168 166 163 161 164 158 150 151 151 153 156 153 155 156 152 157 153 149 146 137 161 180 185 175 172 165 162 172 175 172 170 170 167 170 172 182 198 202 185 207 187 189 185 190 189 157 186 204 169 256 191 162 151 143 154 161 145 151 154
180 167 166 169 172 170 167 166 164 160 158 156 152 157 157 154 154 152 159 155 159 159 156 153 163 157 177 169 162 158 166 178 180 170 161 162 162 169 170 183 190 197 188 192 188 180 178 181 200 180 149 176 134 214 235 171 154 141 163 154 145 154 159
174 164 166 172 173 170 168 169 166 167 157 158 154 159 156 157 154 155 157 163 162 157 149 154 154 152 147 145 139 134 155 172 169 161 158 154 154 162 172 178 178 189 183 203 169 173 174 170 183 188 168 189 154 161 211 172 148 142 138 152 157 161 161
167 160 170 174 172 166 169 171 168 165 161 152 163 157 156 154 151 162 159 162 158 152 154 145 162 157 140 134 131 143 152 166 155 130 157 155 144 160 159 173 171 172 186 178 157 175 169 182 180 181 171 175 160 156 205 169 142 154 150 162 168 163 160
155 158 170 176 171 168 169 168 167 166 157 153 158 159 148 156 158 155 161 161 157 155 150 142 148 151 142 155 151 141 143 136 138 140 148 147 151 148 161 163 163 164 173 165 162 174 184 195 181 177 168 178 155 153 179 171 149 152 164 168 173 171 171
157 157 169 175 170 169 167 165 170 166 157 155 155 151 153 159 153 156 159 161 153 155 147 150 161 161 153 145 152 148 144 140 138 140 135 136 131 156 160 161 159 164 172 168 171 180 194 184 183 170 174 178 169 165 158 177 193 152 170 165 185 193 173
131 106 96 173 168 165 163 163 167 163 154 154 150 152 154 154 158 154 160 163 157 157 157 157 159 153 143 155 134 141 148 133 132 125 115 103 104 112 152 167 158 164 171 168 171 186 182 184 187 172 180 179 185 168 170 187 198 190 176 179 172 206 170
146 160 148 151 158 159 158 157 157 155 152 147 147 149 149 156 157 154 164 161 156 156 151 153 164 167 157 156 152 139 138 141 140 135 130 129 115 105 118 152 153 164 167 173 167 193 177 182 190 181 188 190 180 169 185 191 216 208 216 202 181 192 193
148 133 136 142 149 153 152 146 147 143 146 142 143 142 142 142 146 150 146 149 150 149 149 152 137 157 165 167 164 160 159 157 150 138 145 134 121 110 105 127 156 163 171 176 176 181 176 184 192 200 190 194 210 166 187 202 208 207 216 228 206 197 200
135 138 134 140 145 141 141 143 141 138 137 136 135 136 136 132 134 130 130 141 128 137 143 160 153 157 163 153 164 161 163 187 174 161 157 153 128 116 110 116 137 162 172 175 178 183 187 188 184 199 193 190 213 201 208 209 214 218 214 221 229 211 207
143 124 120 122 126 127 129 131 138 138 140 136 140 138 140 141 140 134 130 122 124 106 95 53 39 0 1 154 149 159 170 179 194 181 180 165 157 145 129 114 123 110 70 49 38 31 34 28 217 200 197 214 212 219 226 226 217 224 225 224 218 227 225
131 130 132 128 111 112 114 117 119 123 127 130 131 134 141 146 147 148 139 123 103 77 54 46 3 344 339 336 178 128 152 175 195 180 196 164 164 168 141 120 87 71 86 85 82 69 89 266 316 327 298 203 209 214 212 218 219 217 226 221 224 225 223
135 133 127 101 94 93 91 91 95 97 97 93 90 95 122 132 132 120 115 103 86 69 50 25 351 358 350 341 326 185 168 139 174 172 179 178 172 171 174 144 132 144 150 154 170 172 180 201 227 265 313 325 325 287 218 217 216 229 225 217 216 218 226
110 108 105 96 86 71 73 72 71 70 72 79 82 88 98 102 100 94 91 87 80 72 67 11 353 359 2 349 342 318 193 153 166 173 164 184 176 168 165 167 160 149 179 72 144 166 187 201 221 244 275 295 294 298 306 294 266 228 228 246 240 232 235
70 80 81 70 72 79 74 71 65 64 69 80 96 103 104 105 103 97 92 90 83 73 62 20 357 1 1 355 347 318 239 143 194 172 168 185 46 84 146 157 171 215 115 112 258 236 202 174 193 208 249 276 283 273 274 282 288 300 301 261 254 255 248
82 85 89 90 85 83 86 88 94 102 111 113 108 103 99 95 97 98 96 93 85 67 53 10 4 9 7 351 340 314 52 97 319 116 182 171 215 211 218 242 230 216 207 221 249 248 258 250 176 182 202 216 228 219 234 246 253 264 262 270 272 264 257
65 62 76 83 82 84 82 79 82 82 79 76 78 82 86 82 80 92 94 93 87 73 48 6 11 10 9 348 331 300 83 250 185 155 139 132 185 177 209 218 248 254 244 250 248 46 267 247 257 245 242 236 236 238 211 208 211 218 220 230 247 261 267
80 78 74 72 74 67 63 63 66 69 67 64 65 66 69 74 80 83 90 93 91 79 55 23 15 15 6 357 317 265 70 247 298 248 206 192 238 202 216 218 236 240 248 260 96 77 358 312 266 255 251 250 252 246 247 146 127 175 252 253 248 262 289
74 77 84 87 86 83 74 53 55 75 97 88 70 64 63 64 67 72 73 84 88 78 60 26 19 19 13 359 334 35 301 236 156 204 274 323 251 256 254 284 281 285 259 327 88 104 68 319 256 255 253 253 253 251 252 178 142 163 221 254 280 285 280
67 66 63 66 71 79 79 69 51 59 92 98 93 94 87 73 68 69 65 52 57 82 68 41 24 24 14 6 341 324 293 271 250 258 224 231 284 270 82 54 338 313 336 61 22 26 1 275 254 252 257 256 253 252 253 234 170 189 142 214 249 263 268
70 70 72 69 71 77 77 78 76 64 80 95 110 115 116 114 105 91 89 90 34 68 92 73 42 27 16 11 356 327 325 301 270 287 292 251 239 273 197 158 123 34 39 39 40 14 346 311 276 260 257 259 258 256 252 250 222 211 206 213 222 216 231
68 72 77 79 78 83 88 85 76 76 70 79 81 85 92 92 99 99 104 99 86 58 68 80 62 38 24 10 5 341 335 344 333 330 294 300 287 258 253 193 116 77 63 45 30 14 343 327 300 291 274 256 257 256 258 255 247 237 227 226 226 214 226
56 59 62 70 73 72 68 67 65 62 63 54 61 71 81 104 107 111 101 98 95 71 39 33 86 54 37 19 8 357 345 14 353 330 316 296 280 276 255 255 116 78 69 47 24 4 347 324 306 292 286 263 268 1 334 276 245 188 240 240 236 228 220
49 48 42 44 51 56 55 59 60 66 69 80 79 73 62 73 105 112 119 113 93 103 93 35 35 95 52 32 18 4 351 37 13 319 307 290 284 274 281 286 287 49 23 6 351 336 313 298 292 277 266 288 313 323 326 316 286 259 237 240 237 229 221
60 54 55 52 52 54 55 59 62 61 67 82 82 88 75 65 89 99 130 125 119 114 126 142 47 47 81 21 50 44 3 343 347 296 295 293 293 287 285 286 32 20 353 339 328 320 306 287 271 251 257 272 283 292 298 288 279 281 268 251 247 247 246
62 61 55 66 64 60 54 62 63 60 66 68 83 82 87 92 95 95 83 104 109 119 193 121 133 112 93 116 309 288 230 240 298 322 322 289 289 294 285 332 357 344 326 316 309 307 305 292 271 270 271 262 263 271 275 267 256 255 267 267 246 239 240